N928DJ KJQF-KJQF

Flight info

Callsign N928DJ
Flight time N/A
Altitude 4000
Route LOCAS
Aircraft GLF6/M-SBDE2E3FGHIJ4J5M1RWXY/LB1D1

Departure

Time 2026-04-30 21:31
Airport Concord-Padgett Regional Airport (KJQF)

Arrival

Time N/A
Airport Concord-Padgett Regional Airport (KJQF)
Time Latitude Longitude Altitude Speed Heading
2026-04-30 21:27 35.37990 -80.71302 628 ft 0 kts 280°
2026-04-30 21:29 35.37979 -80.71316 627 ft 3 kts 150°
2026-04-30 21:30 35.37847 -80.71259 622 ft 14 kts 192°
2026-04-30 21:31 35.38429 -80.70991 652 ft 134 kts 10°
2026-04-30 21:31 35.40811 -80.70367 2079 ft 221 kts 11°
2026-04-30 21:32 35.44004 -80.68892 3921 ft 276 kts 46°
2026-04-30 21:32 35.44932 -80.66857 4007 ft 272 kts 79°
2026-04-30 21:32 35.44792 -80.64610 4020 ft 267 kts 113°
2026-04-30 21:32 35.43648 -80.62873 4024 ft 264 kts 148°
2026-04-30 21:33 35.41930 -80.62207 4024 ft 265 kts 173°
2026-04-30 21:33 35.38264 -80.61978 4011 ft 264 kts 200°
2026-04-30 21:33 35.36708 -80.63171 4018 ft 265 kts 209°
2026-04-30 21:34 35.34927 -80.63622 4030 ft 266 kts 178°
2026-04-30 21:34 35.31381 -80.63423 3997 ft 257 kts 177°
2026-04-30 21:34 35.29643 -80.63316 3993 ft 237 kts 177°
2026-04-30 21:35 35.28108 -80.63220 4015 ft 205 kts 177°
2026-04-30 21:35 35.26765 -80.63137 3981 ft 182 kts 177°
2026-04-30 21:35 35.25513 -80.63059 3994 ft 182 kts 177°
2026-04-30 21:35 35.24224 -80.62980 4004 ft 188 kts 177°
2026-04-30 21:36 35.22917 -80.62899 4002 ft 190 kts 177°
2026-04-30 21:36 35.21595 -80.62817 3999 ft 189 kts 177°
2026-04-30 21:37 35.17765 -80.63223 4011 ft 188 kts 226°
2026-04-30 21:37 35.17240 -80.64674 4018 ft 189 kts 264°
2026-04-30 21:37 35.17135 -80.66298 4005 ft 190 kts 267°
2026-04-30 21:37 35.17101 -80.67793 4000 ft 189 kts 269°
2026-04-30 21:38 35.17088 -80.69407 3999 ft 189 kts 269°
2026-04-30 21:38 35.17083 -80.70941 3999 ft 189 kts 270°
2026-04-30 21:38 35.17081 -80.72572 3999 ft 189 kts 270°
2026-04-30 21:38 35.17078 -80.74171 3999 ft 189 kts 270°
2026-04-30 21:39 35.17076 -80.75791 3999 ft 189 kts 270°
2026-04-30 21:39 35.17073 -80.77411 3998 ft 189 kts 270°
2026-04-30 21:39 35.17535 -80.78867 4009 ft 188 kts 316°
2026-04-30 21:39 35.18713 -80.79486 4015 ft 189 kts 360°
2026-04-30 21:40 35.19926 -80.78928 4018 ft 189 kts 40°
2026-04-30 21:40 35.20938 -80.77877 4005 ft 190 kts 40°
2026-04-30 21:40 35.21920 -80.76855 3962 ft 192 kts 40°
2026-04-30 21:40 35.22908 -80.75826 3727 ft 192 kts 40°
2026-04-30 21:41 35.23931 -80.74808 3479 ft 189 kts 30°
2026-04-30 21:41 35.25070 -80.74238 3252 ft 187 kts 19°
2026-04-30 21:41 35.26312 -80.73779 3000 ft 187 kts 14°
2026-04-30 21:41 35.27572 -80.73446 2746 ft 186 kts 11°
2026-04-30 21:42 35.28856 -80.73149 2486 ft 185 kts 10°
2026-04-30 21:42 35.29953 -80.72901 2265 ft 184 kts 10°
2026-04-30 21:42 35.31226 -80.72614 2006 ft 184 kts 10°
2026-04-30 21:42 35.32476 -80.72333 1753 ft 183 kts 10°
2026-04-30 21:43 35.33717 -80.72053 1683 ft 174 kts 10°
2026-04-30 21:43 35.34932 -80.71780 1944 ft 179 kts 10°
2026-04-30 21:43 35.36160 -80.71503 2200 ft 184 kts 10°
2026-04-30 21:43 35.37434 -80.71217 2454 ft 185 kts 10°
2026-04-30 21:44 35.38691 -80.70934 2700 ft 186 kts 10°
2026-04-30 21:44 35.39843 -80.70293 2947 ft 185 kts 49°
2026-04-30 21:44 35.40521 -80.68951 3217 ft 187 kts 44°
2026-04-30 21:44 35.41620 -80.68072 3496 ft 188 kts 47°
2026-04-30 21:45 35.42064 -80.66624 3777 ft 189 kts 93°
2026-04-30 21:45 35.41559 -80.65169 3980 ft 192 kts 135°
2026-04-30 21:45 35.40405 -80.64517 4007 ft 192 kts 178°
2026-04-30 21:45 35.39175 -80.65027 4011 ft 190 kts 222°
2026-04-30 21:46 35.38588 -80.66438 4013 ft 189 kts 266°
2026-04-30 21:46 35.38962 -80.67937 4014 ft 189 kts 310°
2026-04-30 21:46 35.39961 -80.68677 4014 ft 189 kts 350°
2026-04-30 21:46 35.41089 -80.68478 4015 ft 189 kts 27°
2026-04-30 21:47 35.42247 -80.67678 4007 ft 190 kts 29°
2026-04-30 21:47 35.43420 -80.66943 3996 ft 189 kts 17°
2026-04-30 21:47 35.44671 -80.66647 4002 ft 189 kts
2026-04-30 21:47 35.46006 -80.66554 4000 ft 189 kts
2026-04-30 21:48 35.47329 -80.66531 3999 ft 189 kts
2026-04-30 21:48 35.48584 -80.66531 3999 ft 189 kts 360°
2026-04-30 21:48 35.49908 -80.66538 3999 ft 189 kts 359°
2026-04-30 21:48 35.51225 -80.66547 3999 ft 189 kts 359°
2026-04-30 21:49 35.52547 -80.66557 3999 ft 189 kts 359°
2026-04-30 21:49 35.53878 -80.66567 3999 ft 189 kts 359°
2026-04-30 21:49 35.55191 -80.66578 3999 ft 189 kts 359°
2026-04-30 21:49 35.56505 -80.66592 3997 ft 189 kts 356°
2026-04-30 21:50 35.57756 -80.67066 4009 ft 189 kts 339°
2026-04-30 21:50 35.58791 -80.67571 4001 ft 190 kts 338°
2026-04-30 21:50 35.60157 -80.68243 3999 ft 189 kts 338°
2026-04-30 21:50 35.61304 -80.68806 3999 ft 189 kts 338°
2026-04-30 21:51 35.62584 -80.69437 3999 ft 189 kts 338°
2026-04-30 21:51 35.63811 -80.70040 3999 ft 189 kts 338°
2026-04-30 21:51 35.64943 -80.70467 3991 ft 189 kts 359°
2026-04-30 21:51 35.66042 -80.70016 4011 ft 189 kts 40°
2026-04-30 21:52 35.66672 -80.68639 4013 ft 189 kts 84°
2026-04-30 21:52 35.66360 -80.67132 4013 ft 189 kts 127°
2026-04-30 21:52 35.65260 -80.66290 4013 ft 189 kts 171°
2026-04-30 21:52 35.64022 -80.66138 4006 ft 190 kts 169°
2026-04-30 21:53 35.62700 -80.65974 4002 ft 189 kts 179°
2026-04-30 21:53 35.61384 -80.66028 3999 ft 189 kts 184°
2026-04-30 21:53 35.60087 -80.66199 3999 ft 189 kts 187°
2026-04-30 21:53 35.58779 -80.66435 3999 ft 189 kts 189°
2026-04-30 21:54 35.57479 -80.66703 3999 ft 189 kts 189°
2026-04-30 21:54 35.56184 -80.66985 3999 ft 189 kts 190°
2026-04-30 21:54 35.54879 -80.67277 3999 ft 189 kts 190°
2026-04-30 21:54 35.53568 -80.67572 3999 ft 189 kts 190°
2026-04-30 21:55 35.52263 -80.67868 3892 ft 192 kts 190°
2026-04-30 21:55 35.50964 -80.68162 3716 ft 190 kts 190°
2026-04-30 21:55 35.49653 -80.68459 3534 ft 188 kts 190°
2026-04-30 21:55 35.48384 -80.68745 3232 ft 190 kts 190°
2026-04-30 21:56 35.47180 -80.69018 2991 ft 186 kts 190°
2026-04-30 21:56 35.45893 -80.69308 2619 ft 188 kts 190°
2026-04-30 21:56 35.44542 -80.69614 1779 ft 207 kts 190°
2026-04-30 21:56 35.43154 -80.69927 1404 ft 196 kts 190°